Main page
METAR-TAF:

METAR-TAF

Airports :

São Gabriel da Cachoeira Airport

São Gabriel da Cachoeira, Amazonas, Brazil

latitude: 00-08S, longitude: 067-05W, elevation: 90 m

Current weather observation

The report was made 11 hours and 45 minutes ago, at 20:00 UTC
Wind 4 kt from the West
Temperature 28°C
Humidity 89%
Pressure 1007 hPa
Visibility 10 km or more
Scattered clouds at a height of 2200 ft
Few clouds at a height of 2700 ft, Towering cumulus.

METAR: SBUA 192000Z 26004KT 9999 SCT022 FEW027TCU 28/26 Q1007

Time: 03:45 (07:45 UTC)


TAF: missing

Weather observations and forecasts of more than 4000 airports (METAR and TAF reports).

The available stations are represented by yellow and red dots on the map.

Hover mouse over dot to see the name of the station.

Then click to see weather observations and forecasts.

To change the map : click on the green buttons with a black cross to zoom in, on the green button with a dash to zoom out, or on the green arrows for adjacent maps.


METAR-TAF: